AC2JK-WX Weather Reports


time (UTC)temp
C
wind
direction
speed
KPH
gust
KPH
rain 1hr
cm
rain 24hr
cm
rain mn
cm
humidity
%
barometer
mb
20260509211709 17 245 3.2 6.4 0.00 0.00 0.00 64 1004.0
20260509211210 17 245 3.2 6.4 0.00 0.00 0.00 64 1004.0
20260509210710 17 245 4.8 8.0 0.00 0.00 0.00 64 1004.0
20260509210209 17 245 4.8 4.8 0.00 0.00 0.00 63 1004.0
20260509205709 17 245 3.2 8.0 0.00 0.00 0.00 62 1004.0
20260509205209 17 245 3.2 6.4 0.00 0.00 0.00 63 1004.0
20260509204709 17 245 6.4 9.7 0.00 0.00 0.00 63 1004.0
20260509204209 17 245 3.2 11.3 0.00 0.00 0.00 63 1004.0
20260509203710 17 245 3.2 8.0 0.00 0.00 0.00 63 1004.0
20260509203209 17 245 3.2 6.4 0.00 0.00 0.00 63 1004.0
20260509202709 17 245 3.2 4.8 0.00 0.00 0.00 63 1004.0
20260509202209 17 245 3.2 3.2 0.00 0.00 0.00 62 1004.0
20260509201709 17 245 4.8 9.7 0.00 0.00 0.00 61 1004.0
20260509201209 18 245 4.8 8.0 0.00 0.00 0.00 60 1004.0
20260509200709 18 245 9.7 9.7 0.00 0.00 0.00 59 1004.0
20260509200210 19 245 9.7 11.3 0.00 0.00 0.00 57 1004.0
20260509195709 19 245 11.3 11.3 0.00 0.00 0.00 57 1004.0
20260509195211 19 245 6.4 9.7 0.00 0.00 0.00 58 1004.0
20260509194711 19 245 4.8 14.5 0.00 0.00 0.00 57 1004.0
20260509194209 19 245 8.0 8.0 0.00 0.00 0.00 58 1004.0
20260509193710 18 245 9.7 12.9 0.00 0.00 0.00 57 1004.0
20260509193210 19 245 8.0 11.3 0.00 0.00 0.00 56 1004.0
20260509192710 18 245 9.7 16.1 0.00 0.00 0.00 56 1005.0
20260509192209 20 245 6.4 16.1 0.00 0.00 0.00 55 1005.0
20260509191709 20 245 3.2 12.9 0.00 0.00 0.00 56 1005.0
20260509191210 19 245 6.4 11.3 0.00 0.00 0.00 58 1005.0
20260509190710 18 245 9.7 11.3 0.00 0.00 0.00 59 1005.0
20260509190211 18 245 14.5 14.5 0.00 0.00 0.00 59 1005.0
20260509185710 18 245 3.2 14.5 0.00 0.00 0.00 60 1005.0
20260509185209 18 245 3.2 3.2 0.00 0.00 0.00 60 1005.0
20260509184711 18 245 6.4 16.1 0.00 0.00 0.00 59 1005.0
20260509184209 18 245 6.4 9.7 0.00 0.00 0.00 60 1005.0
20260509183710 18 245 8.0 14.5 0.00 0.00 0.00 61 1005.0
20260509183210 18 245 3.2 11.3 0.00 0.00 0.00 62 1005.0
20260509182711 18 245 12.9 14.5 0.00 0.00 0.00 60 1005.0
20260509182210 18 245 11.3 12.9 0.00 0.00 0.00 61 1005.0
20260509181709 18 245 3.2 12.9 0.00 0.00 0.00 63 1005.0
20260509181210 18 245 6.4 14.5 0.00 0.00 0.00 62 1005.0
20260509180709 18 245 4.8 17.7 0.00 0.00 0.00 61 1005.0
20260509180209 18 245 12.9 12.9 0.00 0.00 0.00 62 1005.0
20260509175713 18 245 6.4 14.5 0.00 0.00 0.00 62 1006.0
20260509175210 18 245 8.0 19.3 0.00 0.00 0.00 62 1006.0
20260509174710 17 245 4.8 17.7 0.00 0.00 0.00 63 1006.0
20260509174209 18 245 8.0 20.9 0.00 0.00 0.00 62 1006.0
20260509173710 17 245 6.4 9.7 0.00 0.00 0.00 63 1006.0
20260509173210 17 245 4.8 9.7 0.00 0.00 0.00 63 1006.0
20260509172709 17 245 4.8 8.0 0.00 0.00 0.00 63 1006.0
20260509172210 18 245 6.4 11.3 0.00 0.00 0.00 62 1006.0
20260509171709 18 245 6.4 12.9 0.00 0.00 0.00 63 1006.0
20260509171209 17 245 4.8 8.0 0.00 0.00 0.00 64 1006.0
20260509170709 17 245 3.2 9.7 0.00 0.00 0.00 64 1006.0
20260509170211 17 245 9.7 12.9 0.00 0.00 0.00 64 1006.0
20260509165709 18 245 9.7 9.7 0.00 0.00 0.00 60 1006.0
20260509165209 17 245 4.8 11.3 0.00 0.00 0.00 63 1006.0
20260509164709 17 245 3.2 11.3 0.00 0.00 0.00 60 1006.0
20260509164210 18 245 4.8 9.7 0.00 0.00 0.00 60 1006.0
20260509163221 17 245 8.0 14.5 0.00 0.00 0.00 62 1007.0
20260509162709 17 245 4.8 14.5 0.00 0.00 0.00 62 1007.0
20260509162209 18 245 3.2 12.9 0.00 0.00 0.00 61 1007.0
20260509161709 17 245 3.2 9.7 0.00 0.00 0.00 61 1007.0
20260509161209 17 245 1.6 11.3 0.00 0.00 0.00 64 1007.0
20260509160711 17 245 3.2 11.3 0.00 0.00 0.00 65 1007.0
20260509160210 16 245 4.8 11.3 0.00 0.00 0.00 66 1007.0
20260509155710 16 245 4.8 12.9 0.00 0.00 0.00 68 1007.0
20260509155209 16 245 4.8 12.9 0.00 0.00 0.00 68 1007.0
20260509154711 15 245 3.2 6.4 0.00 0.00 0.00 71 1007.0
20260509154209 15 245 3.2 9.7 0.00 0.00 0.00 72 1007.0
20260509153709 15 245 4.8 19.3 0.00 0.00 0.00 70 1007.0
20260509153209 15 245 1.6 12.9 0.00 0.00 0.00 71 1007.0
20260509152709 16 245 4.8 14.5 0.00 0.00 0.00 67 1007.0
20260509152209 16 245 3.2 4.8 0.00 0.00 0.00 68 1007.0
20260509151709 16 245 3.2 8.0 0.00 0.00 0.00 69 1007.0
20260509151209 16 245 6.4 9.7 0.00 0.00 0.00 70 1007.0
20260509150709 15 245 1.6 6.4 0.00 0.00 0.00 71 1007.0
20260509150209 15 245 4.8 11.3 0.00 0.00 0.00 73 1007.0
20260509145712 15 245 4.8 4.8 0.00 0.00 0.00 73 1007.0
20260509145209 15 245 6.4 6.4 0.00 0.00 0.00 72 1007.0
20260509144710 15 245 1.6 8.0 0.00 0.00 0.00 72 1007.0
20260509144209 15 245 1.6 3.2 0.00 0.00 0.00 74 1007.0
20260509143710 15 245 4.8 6.4 0.00 0.00 0.00 74 1007.0
20260509143210 15 245 6.4 9.7 0.00 0.00 0.00 74 1007.0
20260509142709 15 245 4.8 9.7 0.00 0.00 0.00 75 1007.0
20260509142209 15 245 3.2 9.7 0.00 0.00 0.00 75 1007.0
20260509141709 14 245 1.6 6.4 0.00 0.00 0.00 74 1007.0
20260509141210 15 245 4.8 8.0 0.00 0.00 0.00 75 1007.0
20260509140709 14 245 3.2 6.4 0.00 0.00 0.00 76 1007.0
20260509140210 14 245 0.0 6.4 0.00 0.00 0.00 77 1007.0
20260509135709 13 245 3.2 3.2 0.00 0.00 0.00 77 1008.0
20260509135209 13 245 3.2 4.8 0.00 0.00 0.00 78 1008.0
20260509134709 13 245 4.8 4.8 0.00 0.00 0.00 78 1008.0
20260509134210 13 245 4.8 9.7 0.00 0.00 0.00 78 1008.0
20260509133711 13 245 3.2 11.3 0.00 0.00 0.00 78 1008.0
20260509133210 13 245 4.8 6.4 0.00 0.00 0.00 79 1008.0
20260509132710 13 245 6.4 6.4 0.00 0.00 0.00 79 1008.0
20260509132210 13 245 3.2 6.4 0.00 0.00 0.00 79 1008.0
20260509131709 13 245 3.2 9.7 0.00 0.00 0.00 80 1008.0
20260509131209 13 245 3.2 6.4 0.00 0.00 0.00 80 1008.0
20260509130710 13 245 4.8 8.0 0.00 0.00 0.00 81 1008.0
20260509130209 13 245 4.8 8.0 0.00 0.00 0.00 81 1008.0
20260509125709 13 245 4.8 11.3 0.00 0.00 0.00 80 1008.0
20260509125209 12 245 4.8 6.4 0.00 0.00 0.00 81 1008.0
20260509124709 12 245 1.6 6.4 0.00 0.00 0.00 82 1008.0
20260509124209 12 245 0.0 4.8 0.00 0.00 0.00 82 1008.0
20260509123709 12 245 0.0 3.2 0.00 0.00 0.00 83 1008.0
20260509123211 11 245 4.8 4.8 0.00 0.00 0.00 84 1008.0
20260509122710 11 245 0.0 8.0 0.00 0.00 0.00 84 1008.0
20260509122209 11 245 3.2 4.8 0.00 0.00 0.00 84 1008.0
20260509121709 11 245 3.2 6.4 0.00 0.00 0.00 84 1008.0
20260509121210 11 245 0.0 8.0 0.00 0.00 0.00 85 1008.0
20260509120709 11 245 1.6 1.6 0.00 0.00 0.00 86 1008.0
20260509120209 10 245 3.2 3.2 0.00 0.00 0.00 86 1008.0
20260509115709 10 245 0.0 0.0 0.00 0.00 0.00 87 1008.0
20260509115209 10 245 3.2 3.2 0.00 0.00 0.00 87 1008.0
20260509114709 9 245 0.0 3.2 0.00 0.00 0.00 87 1008.0
20260509114210 9 245 0.0 1.6 0.00 0.00 0.00 88 1008.0
20260509113709 9 245 3.2 4.8 0.00 0.00 0.00 88 1008.0
20260509113210 8 245 1.6 3.2 0.00 0.00 0.00 89 1008.0
20260509112709 8 245 0.0 3.2 0.00 0.00 0.00 90 1008.0
20260509112210 8 245 1.6 3.2 0.00 0.00 0.00 91 1008.0
20260509111709 8 245 1.6 1.6 0.00 0.00 0.00 92 1008.0
20260509111209 7 245 0.0 4.8 0.00 0.00 0.00 92 1008.0
20260509110710 7 245 0.0 3.2 0.00 0.00 0.00 93 1008.0
20260509110211 6 245 0.0 0.0 0.00 0.00 0.00 92 1008.0
20260509105709 6 245 0.0 0.0 0.00 0.00 0.00 91 1008.0
20260509105209 6 245 0.0 0.0 0.00 0.00 0.00 91 1008.0
20260509104710 5 245 0.0 0.0 0.00 0.00 0.00 91 1008.0
20260509104209 5 245 0.0 0.0 0.00 0.00 0.00 90 1008.0
20260509103709 5 245 0.0 0.0 0.00 0.00 0.00 90 1008.0
20260509103209 5 245 0.0 0.0 0.00 0.00 0.00 90 1008.0
20260509102709 5 245 0.0 0.0 0.00 0.00 0.00 90 1008.0
20260509102209 5 245 0.0 0.0 0.00 0.00 0.00 90 1008.0
20260509101709 5 245 0.0 0.0 0.00 0.00 0.00 89 1008.0
20260509101209 5 245 0.0 0.0 0.00 0.00 0.00 89 1008.0
20260509100709 5 245 0.0 0.0 0.00 0.00 0.00 89 1008.0
20260509100211 5 245 0.0 0.0 0.00 0.00 0.00 89 1008.0
20260509095709 5 245 0.0 0.0 0.00 0.00 0.00 88 1008.0
20260509095209 5 245 0.0 0.0 0.00 0.00 0.00 89 1008.0
20260509094709 5 245 0.0 0.0 0.00 0.00 0.00 88 1008.0
20260509094209 5 245 0.0 0.0 0.00 0.00 0.00 88 1008.0
20260509093709 5 245 0.0 0.0 0.00 0.00 0.00 87 1008.0
20260509093211 5 245 0.0 0.0 0.00 0.00 0.00 87 1008.0
20260509092710 5 245 0.0 0.0 0.00 0.00 0.00 87 1008.0
20260509092209 5 245 0.0 0.0 0.00 0.00 0.00 87 1008.0
20260509091709 6 245 0.0 0.0 0.00 0.00 0.00 86 1008.0
20260509091210 6 245 0.0 0.0 0.00 0.00 0.00 86 1008.0
20260509090709 6 245 0.0 0.0 0.00 0.00 0.00 86 1008.0
20260509090210 6 245 0.0 0.0 0.00 0.00 0.00 86 1008.0
20260509085709 5 245 0.0 0.0 0.00 0.00 0.00 85 1008.0
20260509085209 6 245 0.0 0.0 0.00 0.00 0.00 85 1008.0
20260509084709 6 245 0.0 0.0 0.00 0.00 0.00 85 1008.0
20260509084209 6 245 0.0 0.0 0.00 0.00 0.00 83 1008.0
20260509083709 6 245 0.0 0.0 0.00 0.00 0.00 83 1008.0
20260509083209 6 245 0.0 0.0 0.00 0.00 0.00 82 1008.0
20260509082710 6 245 0.0 0.0 0.00 0.00 0.00 82 1008.0
20260509082211 6 245 0.0 0.0 0.00 0.00 0.00 81 1008.0
20260509081709 6 245 0.0 0.0 0.00 0.00 0.00 80 1008.0
20260509081209 6 245 0.0 1.6 0.00 0.00 0.00 80 1008.0
20260509080710 6 245 0.0 1.6 0.00 0.00 0.00 80 1008.0
20260509080209 6 245 0.0 1.6 0.00 0.00 0.00 80 1008.0
20260509075709 6 245 1.6 1.6 0.00 0.00 0.00 79 1008.0
20260509075209 6 245 0.0 1.6 0.00 0.00 0.00 78 1009.0
20260509074709 6 245 1.6 1.6 0.00 0.00 0.00 78 1009.0
20260509074209 6 245 1.6 1.6 0.00 0.00 0.00 77 1009.0
20260509073709 6 245 0.0 0.0 0.00 0.00 0.00 76 1009.0
20260509073210 6 245 0.0 3.2 0.00 0.00 0.00 76 1009.0
20260509072709 6 245 0.0 3.2 0.00 0.00 0.00 76 1009.0
20260509072209 6 245 3.2 3.2 0.00 0.00 0.00 76 1009.0
20260509071709 5 245 1.6 1.6 0.00 0.00 0.00 78 1009.0
20260509071209 5 245 0.0 3.2 0.00 0.00 0.00 78 1009.0
20260509070709 5 245 1.6 3.2 0.00 0.00 0.00 77 1009.0
20260509070209 5 245 0.0 0.0 0.00 0.00 0.00 77 1009.0
20260509065710 5 245 0.0 0.0 0.00 0.00 0.00 76 1009.0
20260509065209 5 245 0.0 0.0 0.00 0.00 0.00 76 1009.0
20260509064710 5 245 0.0 0.0 0.00 0.00 0.00 76 1009.0
20260509064210 5 245 0.0 1.6 0.00 0.00 0.00 75 1009.0
20260509063709 5 245 0.0 1.6 0.00 0.00 0.00 75 1009.0
20260509063209 5 245 1.6 1.6 0.00 0.00 0.00 75 1009.0
20260509062710 5 245 0.0 1.6 0.00 0.00 0.00 75 1009.0
20260509062210 5 245 0.0 1.6 0.00 0.00 0.00 75 1009.0
20260509061711 5 245 1.6 1.6 0.00 0.00 0.00 74 1010.0
20260509061210 5 245 0.0 1.6 0.00 0.00 0.00 74 1010.0
20260509060709 5 245 0.0 1.6 0.00 0.00 0.00 73 1010.0
20260509060209 5 245 0.0 0.0 0.00 0.00 0.00 74 1010.0
20260509055709 6 245 0.0 0.0 0.00 0.00 0.00 73 1010.0
20260509055209 6 245 0.0 0.0 0.00 0.00 0.00 73 1010.0
20260509054710 6 245 0.0 0.0 0.00 0.00 0.00 72 1010.0
20260509054209 6 245 0.0 0.0 0.00 0.00 0.00 72 1010.0
20260509053709 6 245 0.0 0.0 0.00 0.00 0.00 73 1010.0
20260509053209 6 245 0.0 0.0 0.00 0.00 0.00 72 1010.0
20260509052709 6 245 0.0 0.0 0.00 0.00 0.00 71 1010.0
20260509052210 6 245 0.0 0.0 0.00 0.00 0.00 71 1010.0
20260509051710 6 245 1.6 1.6 0.00 0.00 0.00 70 1010.0
20260509051209 6 245 0.0 1.6 0.00 0.00 0.00 70 1010.0
20260509050709 6 245 0.0 1.6 0.00 0.00 0.00 71 1010.0
20260509050209 6 245 0.0 3.2 0.00 0.00 0.00 72 1010.0
20260509045710 6 245 1.6 1.6 0.00 0.00 0.00 73 1010.0
20260509045209 6 245 0.0 0.0 0.00 0.00 0.00 73 1010.0
20260509044709 6 245 0.0 0.0 0.00 0.00 0.00 73 1010.0
20260509044210 6 245 0.0 0.0 0.00 0.00 0.00 71 1010.0
20260509043710 6 245 0.0 0.0 0.00 0.00 0.00 71 1010.0
20260509043210 6 245 0.0 0.0 0.00 0.00 0.00 70 1010.0
20260509042709 6 245 0.0 0.0 0.00 0.00 0.00 70 1011.0
20260509042211 6 245 0.0 0.0 0.00 0.00 0.00 69 1011.0
20260509041709 6 245 1.6 3.2 0.00 0.00 0.00 69 1011.0
20260509041209 6 245 0.0 0.0 0.00 0.00 0.00 70 1011.0
20260509040709 6 245 0.0 1.6 0.00 0.00 0.00 70 1011.0
20260509040209 5 245 0.0 1.6 0.00 0.00 0.20 70 1011.0
20260509035709 5 245 1.6 1.6 0.00 0.00 0.20 71 1011.0
20260509035209 5 245 0.0 1.6 0.00 0.00 0.20 72 1011.0
20260509034709 6 245 1.6 1.6 0.00 0.00 0.20 72 1011.0
20260509034209 6 245 1.6 1.6 0.00 0.00 0.20 73 1011.0
20260509033709 6 245 0.0 1.6 0.00 0.00 0.20 72 1011.0
20260509033209 6 245 1.6 1.6 0.00 0.00 0.20 72 1011.0
20260509032709 6 245 1.6 1.6 0.00 0.00 0.20 71 1011.0
20260509032210 6 245 0.0 1.6 0.00 0.00 0.20 72 1011.0
20260509031709 6 245 1.6 1.6 0.00 0.00 0.20 71 1011.0
20260509031210 6 245 1.6 1.6 0.00 0.00 0.20 68 1011.0
20260509030710 6 245 0.0 1.6 0.00 0.00 0.20 70 1011.0
20260509030209 6 245 0.0 1.6 0.00 0.00 0.20 71 1011.0
20260509025709 6 245 0.0 1.6 0.00 0.00 0.20 70 1011.0
20260509025209 6 245 0.0 1.6 0.00 0.00 0.20 70 1011.0
20260509024710 6 245 1.6 1.6 0.00 0.00 0.20 70 1011.0
20260509024209 6 245 1.6 1.6 0.00 0.00 0.20 69 1011.0
20260509023709 6 245 0.0 1.6 0.00 0.00 0.20 65 1011.0
20260509023210 7 245 1.6 1.6 0.00 0.00 0.20 66 1011.0
20260509022709 7 245 1.6 1.6 0.00 0.00 0.20 67 1011.0
20260509022209 7 245 0.0 1.6 0.00 0.00 0.20 66 1011.0
20260509021709 7 245 0.0 1.6 0.00 0.00 0.20 63 1011.0
20260509021210 7 245 1.6 1.6 0.00 0.00 0.20 65 1011.0
20260509020709 7 245 1.6 1.6 0.00 0.00 0.20 62 1011.0
20260509020210 7 245 0.0 1.6 0.00 0.00 0.20 60 1011.0
20260509015709 7 245 0.0 1.6 0.00 0.00 0.20 57 1011.0
20260509015212 7 245 1.6 1.6 0.00 0.00 0.20 57 1011.0
20260509014709 8 245 0.0 1.6 0.00 0.00 0.20 54 1011.0
20260509014212 8 245 0.0 1.6 0.00 0.00 0.20 59 1011.0
20260509013709 8 245 1.6 1.6 0.00 0.00 0.20 65 1011.0
20260509013209 8 245 0.0 1.6 0.00 0.00 0.20 64 1011.0
20260509012710 8 245 0.0 1.6 0.00 0.00 0.20 54 1011.0
20260509012209 8 245 1.6 1.6 0.00 0.00 0.20 56 1011.0
20260509011709 8 245 1.6 1.6 0.00 0.00 0.20 62 1011.0
20260509011211 8 245 0.0 1.6 0.00 0.00 0.20 49 1011.0
20260509010710 9 245 0.0 1.6 0.00 0.00 0.20 49 1011.0
20260509010209 9 245 1.6 1.6 0.00 0.00 0.20 53 1011.0
20260509005709 9 245 0.0 1.6 0.00 0.00 0.20 50 1011.0
20260509005209 10 245 0.0 1.6 0.00 0.00 0.20 46 1011.0
20260509004709 10 245 1.6 1.6 0.00 0.00 0.20 47 1011.0
20260509004209 10 245 0.0 1.6 0.00 0.00 0.20 41 1011.0
20260509003709 10 245 0.0 1.6 0.00 0.00 0.20 38 1011.0
20260509003209 11 245 1.6 1.6 0.00 0.00 0.20 37 1011.0
20260509002709 11 245 1.6 3.2 0.00 0.00 0.20 35 1011.0
20260509002209 11 245 0.0 3.2 0.00 0.00 0.20 34 1011.0
20260509001709 11 245 0.0 3.2 0.00 0.00 0.20 35 1011.0
20260509001209 11 245 0.0 1.6 0.00 0.00 0.20 36 1011.0
20260509000709 11 245 0.0 1.6 0.00 0.00 0.20 35 1010.0
20260509000211 11 245 1.6 4.8 0.00 0.00 0.20 35 1010.0
20260508235709 11 245 1.6 3.2 0.00 0.00 0.20 34 1010.0
20260508235209 12 245 3.2 4.8 0.00 0.00 0.20 34 1010.0
20260508234709 12 245 1.6 4.8 0.00 0.00 0.20 35 1010.0
20260508234209 12 245 3.2 6.4 0.00 0.00 0.20 33 1010.0
20260508233709 12 245 4.8 4.8 0.00 0.00 0.20 34 1010.0
20260508233210 12 245 1.6 6.4 0.00 0.00 0.20 33 1010.0
20260508232709 12 245 3.2 8.0 0.00 0.00 0.20 33 1010.0
20260508232209 12 245 1.6 8.0 0.00 0.00 0.20 32 1010.0
20260508231709 13 245 4.8 6.4 0.00 0.00 0.20 31 1010.0
20260508231210 13 245 9.7 9.7 0.00 0.00 0.20 29 1010.0
20260508230709 13 245 3.2 4.8 0.00 0.00 0.20 29 1010.0
20260508230210 13 245 4.8 6.4 0.00 0.00 0.20 30 1010.0
20260508225711 14 245 1.6 4.8 0.00 0.00 0.20 32 1010.0
20260508225210 15 245 9.7 9.7 0.00 0.00 0.20 30 1010.0
20260508224710 15 245 1.6 4.8 0.00 0.00 0.20 32 1010.0
20260508224209 15 245 1.6 4.8 0.00 0.00 0.20 32 1010.0
20260508223710 15 245 4.8 8.0 0.00 0.00 0.20 33 1011.0
20260508223209 15 245 6.4 9.7 0.00 0.00 0.20 33 1011.0
20260508222709 15 245 3.2 8.0 0.00 0.00 0.20 33 1011.0
20260508222209 15 245 6.4 6.4 0.00 0.00 0.20 34 1011.0
20260508221709 15 245 1.6 1.6 0.00 0.00 0.20 36 1011.0
20260508221209 15 245 3.2 3.2 0.00 0.00 0.20 35 1011.0
20260508220710 15 245 3.2 6.4 0.00 0.00 0.20 35 1011.0
20260508220209 15 245 4.8 6.4 0.00 0.00 0.20 35 1011.0
20260508215709 14 245 4.8 6.4 0.00 0.00 0.20 34 1011.0
20260508215209 14 245 3.2 8.0 0.00 0.00 0.20 33 1011.0
20260508214709 15 245 4.8 11.3 0.00 0.00 0.20 33 1011.0
20260508214209 14 245 4.8 4.8 0.00 0.00 0.20 34 1011.0
20260508213322 15 245 6.4 6.4 0.00 0.00 0.20 33 1011.0
20260508212710 14 245 3.2 6.4 0.00 0.00 0.20 33 1011.0
20260508212210 13 245 4.8 9.7 0.00 0.00 0.20 34 1011.0